[[{"header":{"parameterUnit":"m.s-1","parameterCategory":1,"la1":30.2991,"la2":30.254,"lo1":-89.0895,"lo2":-89.0444,"dy":0.0017,"dx":0.0017,"nx":28,"ny":28,"refTime":"2023-08-29T03:00:00:Z","depth":0,"parameterNumber":2,"parameterNumberName":"U-component_of_WINDS"},"data":[0,0,0,0,0,0,0,0,0,0,0,0,0,0,0,0,0,0,0,0,0,0,0,0,0,0,0,0,0,0,0,0,0,0,0,0,0,0,0,0,0,0,0,0,0,0,0,0,0,0,0,0,0,0,0,0,0,0,1.8641,1.8642,0,1.8706,1.8707,1.8708,1.8742,1.8742,1.8742,1.8742,1.8806,1.8807,1.8809,0,0,0,0,0,0,0,0,0,0,0,0,0,1.8543,1.8544,1.8641,1.8642,1.8642,1.8706,1.8707,1.8708,1.8742,1.8742,1.8742,1.8742,1.8805,1.8807,1.8809,0,0,0,0,0,0,0,0,0,0,0,0,0,1.8594,1.8545,1.8641,1.8667,1.867,1.8706,1.8707,1.8708,1.8742,1.8742,1.8742,1.8742,1.8804,1.8807,1.8809,1.8823,0,0,1.8817,1.8818,0,0,0,0,0,0,0,0,1.8591,1.8598,1.8662,1.8665,1.8669,1.8716,1.8696,1.8746,1.8742,1.8715,1.8742,1.8742,1.8776,1.878,1.8792,1.8826,1.8828,1.8817,1.8818,1.882,1.882,0,0,0,0,0,0,0,1.8588,1.8595,1.8667,1.8663,1.8667,1.8675,1.8683,1.8706,1.8744,1.8717,1.872,1.8727,1.8777,1.879,1.8794,1.8829,1.8817,1.8819,1.8821,1.8822,1.8879,1.8879,0,0,0,0,0,0,1.858,1.8592,1.8665,1.8669,1.863,1.8677,1.8685,1.8701,1.8744,1.875,1.8727,1.8728,1.8786,1.8791,1.8796,1.8816,1.882,1.8822,1.8823,1.8879,1.8879,1.8879,0,0,0,0,0,0,1.8578,1.8586,1.8662,1.8631,1.8641,1.8678,1.8696,1.8702,1.8715,1.8751,1.8758,1.8733,1.8786,1.8793,1.8817,1.8819,1.8823,1.8825,1.8879,1.8879,1.8879,1.8854,0,0,0,0,0,0,1.8575,1.8585,1.8591,1.8631,1.8643,1.8681,1.8696,1.8703,1.8719,1.8722,1.8759,1.8765,1.8787,1.8813,1.8819,1.8822,1.8827,1.8878,1.8879,1.8879,1.8855,1.8853,1.8852,0,0,0,0,0,1.8572,1.858,1.8591,1.86,1.8651,1.8681,1.8688,1.8714,1.8719,1.8725,1.8749,1.8764,1.8818,1.8815,1.8822,1.8826,1.8878,1.8879,1.8879,1.8855,1.8854,1.8852,0,0,0,0,0,0,1.8538,1.8586,1.8599,1.8621,1.8647,1.8687,1.8695,1.8711,1.8735,1.8736,1.8766,1.8774,1.8795,1.8813,1.8809,1.8842,1.885,1.8851,1.8829,1.8828,1.8827,1.8821,1.8829,0,0,0,0,0,1.8533,1.8555,1.8596,1.8611,1.8624,1.8657,1.8671,1.869,1.8717,1.8728,1.8753,1.8779,1.8802,1.8816,1.8839,1.8858,1.8867,1.8865,1.8863,1.8862,1.8862,1.8875,1.8875,1.8879,1.8879,1.8879,0,0,1.8523,1.8553,1.8564,1.8605,1.8628,1.8649,1.8666,1.8687,1.8703,1.8731,1.8755,1.8775,1.8805,1.8827,1.8838,1.8842,1.8863,1.8862,1.886,1.8862,1.8875,1.8875,1.8874,1.8879,1.8879,1.8879,0,0,1.8516,1.8541,1.8557,1.858,1.8614,1.8637,1.8641,1.8679,1.8694,1.8719,1.8741,1.876,1.8799,1.882,1.8836,1.884,1.8854,1.8846,1.8838,1.885,1.885,1.885,1.8852,1.8852,1.8847,1.8847,1.8847,0,1.8499,1.8533,1.8563,1.8584,1.8601,1.863,1.8647,1.8667,1.8706,1.8718,1.8723,1.8773,1.8796,1.8824,1.8825,1.8837,1.8842,1.8842,1.8848,1.8848,1.8848,1.885,1.8851,1.8846,1.8846,1.8846,1.8846,0,1.851,1.8534,1.8543,1.8582,1.8601,1.8619,1.8652,1.8667,1.8685,1.8707,1.8733,1.8761,1.8791,1.8799,1.8815,1.883,1.8832,1.8842,1.885,1.8846,1.8849,1.885,1.8844,1.8845,1.8845,1.8845,0,0,1.8481,1.854,1.8542,1.8562,1.8603,1.8621,1.8641,1.8672,1.8685,1.8712,1.873,1.8763,1.8774,1.8792,1.8811,1.8821,1.8824,1.883,1.8832,1.8828,1.8842,1.8834,1.8834,1.8834,1.8835,1.8835,1.884,0,1.848,1.8519,1.8547,1.8575,1.8597,1.8625,1.8643,1.867,1.8692,1.8714,1.8737,1.8761,1.8773,1.8784,1.8796,1.8821,1.8827,1.8821,1.885,1.8851,1.8841,1.8835,1.8826,1.8829,1.8841,1.8841,1.8841,0,1.8482,1.8511,1.8541,1.8582,1.8592,1.8607,1.8639,1.866,1.8691,1.8707,1.8728,1.8749,1.8772,1.8779,1.8811,1.8806,1.882,1.8835,1.8835,1.8838,1.8845,1.8838,1.8831,1.8831,1.8843,1.8843,1.8843,0,1.8458,1.8504,1.8528,1.8543,1.8592,1.8602,1.8622,1.8655,1.8672,1.87,1.8712,1.8741,1.8757,1.8779,1.8807,1.881,1.8837,1.8846,1.885,1.8849,1.8853,1.8852,1.8847,1.8863,1.8863,1.8863,1.8863,0,1.8453,1.847,1.8518,1.8533,1.8553,1.8587,1.8606,1.8629,1.8658,1.8677,1.8704,1.8721,1.8758,1.878,1.8802,1.8826,1.8833,1.8845,1.8851,1.8843,1.8841,1.8851,1.8852,1.8863,1.8863,1.8863,1.8863,0,1.8428,1.8461,1.849,1.8534,1.8546,1.8559,1.8597,1.8612,1.8637,1.8662,1.8669,1.8707,1.8735,1.8766,1.8803,1.8819,1.8841,1.8849,1.883,1.8833,1.8835,1.8834,1.8837,1.8839,1.8853,1.8853,1.8853,0,1.8422,1.8436,1.8483,1.8499,1.852,1.8544,1.8563,1.8597,1.8616,1.8655,1.8666,1.8696,1.8722,1.8765,1.8796,1.8825,1.8834,1.8833,1.8838,1.883,1.8834,1.8832,1.8834,1.8831,1.883,1.883,1.883,0,1.8408,1.8424,1.845,1.8484,1.8506,1.8533,1.8561,1.8572,1.8612,1.8631,1.8661,1.8682,1.8722,1.8751,1.8785,1.8806,1.8824,1.8828,1.8831,1.8822,1.881,1.8817,1.8825,1.8828,1.8828,1.8828,1.8828,1.8828,1.8392,1.8406,1.8443,1.8472,1.8497,1.8524,1.8541,1.8569,1.8595,1.8631,1.8649,1.8679,1.8713,1.876,1.8781,1.8805,1.881,1.8814,1.8814,1.8815,1.8813,1.8808,1.8811,1.8811,1.8811,1.8811,1.8811,0,1.8378,1.8404,1.8431,1.8471,1.8494,1.8512,1.8545,1.8562,1.8589,1.8619,1.8645,1.868,1.871,1.8744,1.8776,1.8789,1.8798,1.8796,1.8795,1.88,1.8805,1.88,1.8788,1.8788,1.8788,1.8788,1.8788,1.8788,1.8374,1.84,1.8421,1.8461,1.8486,1.8516,1.8534,1.8558,1.8583,1.8622,1.8647,1.867,1.8702,1.8738,1.8766,1.8775,1.8786,1.8781,1.8793,1.8797,1.8799,1.8801,1.8796,1.8783,1.8783,1.8785,1.8785,1.8785]},{"header":{"parameterUnit":"m.s-1","parameterCategory":1,"la1":30.2991,"la2":30.254,"lo1":-89.0895,"lo2":-89.0444,"dy":0.0017,"dx":0.0017,"nx":28,"ny":28,"refTime":"2023-08-29T03:00:00:Z","depth":0,"parameterNumber":3,"parameterNumberName":"V-component_of_WINDS"},"data":[0,0,0,0,0,0,0,0,0,0,0,0,0,0,0,0,0,0,0,0,0,0,0,0,0,0,0,0,0,0,0,0,0,0,0,0,0,0,0,0,0,0,0,0,0,0,0,0,0,0,0,0,0,0,0,0,0,0,-5.4324,-5.4325,0,-5.4365,-5.4366,-5.4366,-5.424,-5.4236,-5.4232,-5.4228,-5.4267,-5.4272,-5.4277,0,0,0,0,0,0,0,0,0,0,0,0,0,-5.4133,-5.4137,-5.4324,-5.4325,-5.4325,-5.4365,-5.4366,-5.4366,-5.424,-5.4236,-5.4231,-5.4227,-5.4266,-5.4271,-5.4277,0,0,0,0,0,0,0,0,0,0,0,0,0,-5.4199,-5.4139,-5.4324,-5.4267,-5.4263,-5.4365,-5.4366,-5.4366,-5.4241,-5.4236,-5.423,-5.4225,-5.4264,-5.4271,-5.4278,-5.4436,0,0,-5.4299,-5.4302,0,0,0,0,0,0,0,0,-5.4196,-5.4206,-5.4275,-5.4272,-5.4266,-5.4292,-5.4312,-5.439,-5.4243,-5.425,-5.4228,-5.4222,-5.428,-5.4285,-5.4305,-5.4438,-5.4439,-5.4299,-5.4304,-5.4307,-5.4309,0,0,0,0,0,0,0,-5.4191,-5.4204,-5.434,-5.4276,-5.4271,-5.4239,-5.4242,-5.4326,-5.4296,-5.4248,-5.4239,-5.4246,-5.4276,-5.4299,-5.4305,-5.444,-5.4299,-5.4305,-5.431,-5.4312,-5.4702,-5.4708,0,0,0,0,0,0,-5.4195,-5.4201,-5.4339,-5.4341,-5.4216,-5.4247,-5.425,-5.4289,-5.4295,-5.4291,-5.4251,-5.424,-5.429,-5.4297,-5.4306,-5.4491,-5.4307,-5.4313,-5.4317,-5.4696,-5.4704,-5.4711,0,0,0,0,0,0,-5.4191,-5.4208,-5.4337,-5.4269,-5.4283,-5.4256,-5.4301,-5.4293,-5.4316,-5.4297,-5.4291,-5.428,-5.4286,-5.4297,-5.4404,-5.4491,-5.4316,-5.4323,-5.4689,-5.4699,-5.4707,-5.4863,0,0,0,0,0,0,-5.4186,-5.4208,-5.4269,-5.4271,-5.4287,-5.4437,-5.4306,-5.4298,-5.4328,-5.4314,-5.4323,-5.4318,-5.4282,-5.4395,-5.4411,-5.4497,-5.4328,-5.4681,-5.4693,-5.4704,-5.485,-5.4877,-5.49,0,0,0,0,0,-5.418,-5.431,-5.4272,-5.429,-5.4363,-5.4442,-5.4451,-5.4407,-5.4336,-5.4396,-5.4384,-5.4318,-5.4479,-5.4407,-5.4425,-5.4514,-5.4675,-5.469,-5.4703,-5.4839,-5.4872,-5.4899,0,0,0,0,0,0,-5.4317,-5.431,-5.4267,-5.4403,-5.4424,-5.442,-5.4495,-5.4443,-5.4484,-5.4469,-5.4412,-5.4415,-5.4533,-5.4534,-5.4454,-5.4666,-5.4565,-5.4583,-5.4662,-5.4693,-5.4717,-5.4714,-5.4334,0,0,0,0,0,-5.4364,-5.443,-5.4419,-5.454,-5.4552,-5.4523,-5.4555,-5.452,-5.4539,-5.4547,-5.4543,-5.4563,-5.4617,-5.4655,-5.4704,-5.4849,-5.4849,-5.4919,-5.4944,-5.4964,-5.4981,-5.5057,-5.5088,-5.4756,-5.4756,-5.4756,0,0,-5.446,-5.4464,-5.4509,-5.4567,-5.458,-5.4648,-5.4531,-5.4608,-5.4658,-5.4558,-5.466,-5.4658,-5.4676,-5.4804,-5.486,-5.4808,-5.5072,-5.4982,-5.4998,-5.5004,-5.5075,-5.5106,-5.5134,-5.4766,-5.4764,-5.4763,0,0,-5.467,-5.468,-5.4782,-5.4796,-5.4817,-5.4796,-5.482,-5.4824,-5.4819,-5.4921,-5.4847,-5.4905,-5.5001,-5.5017,-5.5038,-5.5253,-5.5194,-5.5271,-5.54,-5.5475,-5.5501,-5.5524,-5.56,-5.5629,-5.5287,-5.5288,-5.5288,0,-5.4787,-5.4889,-5.484,-5.4923,-5.495,-5.4864,-5.4965,-5.4981,-5.5017,-5.5037,-5.4979,-5.5097,-5.5103,-5.5233,-5.5286,-5.5306,-5.5331,-5.527,-5.5501,-5.5523,-5.5544,-5.5617,-5.5646,-5.5297,-5.5296,-5.5295,-5.5294,0,-5.5031,-5.5102,-5.5181,-5.5219,-5.5255,-5.5347,-5.5311,-5.5353,-5.5315,-5.5299,-5.5403,-5.5408,-5.5457,-5.5484,-5.5447,-5.5609,-5.5576,-5.5511,-5.5407,-5.5586,-5.5653,-5.5681,-5.531,-5.5307,-5.5304,-5.5302,0,0,-5.533,-5.5339,-5.5369,-5.5385,-5.54,-5.5454,-5.5541,-5.5589,-5.5627,-5.5653,-5.5725,-5.5807,-5.5747,-5.577,-5.5734,-5.58,-5.597,-5.5725,-5.5725,-5.5771,-5.6148,-5.6198,-5.6231,-5.5931,-5.5936,-5.594,-5.6147,0,-5.5537,-5.5688,-5.5647,-5.5797,-5.5862,-5.578,-5.5856,-5.5873,-5.5861,-5.5913,-5.5898,-5.5958,-5.5874,-5.5887,-5.5949,-5.5937,-5.6045,-5.5921,-5.5996,-5.5999,-5.5995,-5.6266,-5.6319,-5.6515,-5.6173,-5.6177,-5.618,0,-5.5799,-5.5837,-5.5995,-5.5999,-5.6025,-5.6094,-5.6135,-5.6186,-5.6203,-5.6189,-5.6216,-5.6166,-5.625,-5.6146,-5.6261,-5.6178,-5.6206,-5.6204,-5.6211,-5.6216,-5.6101,-5.628,-5.6576,-5.6606,-5.6221,-5.6218,-5.6215,0,-5.6002,-5.6092,-5.6198,-5.6214,-5.6222,-5.6272,-5.6277,-5.6289,-5.6321,-5.6355,-5.6375,-5.6419,-5.6444,-5.6479,-5.6441,-5.6369,-5.6562,-5.6455,-5.6553,-5.6554,-5.6598,-5.6596,-5.6903,-5.6615,-5.6615,-5.6614,-5.6614,0,-5.6238,-5.6338,-5.6289,-5.6355,-5.6463,-5.6414,-5.6522,-5.6518,-5.6529,-5.659,-5.6521,-5.6581,-5.6527,-5.6582,-5.6552,-5.6652,-5.6663,-5.6654,-5.6646,-5.6661,-5.6663,-5.6679,-5.6665,-5.6622,-5.662,-5.6619,-5.6618,0,-5.6484,-5.6455,-5.6565,-5.6563,-5.6565,-5.6645,-5.6643,-5.6703,-5.6685,-5.6764,-5.678,-5.6752,-5.6813,-5.6778,-5.684,-5.682,-5.695,-5.6922,-5.6945,-5.6938,-5.7038,-5.7029,-5.7367,-5.7409,-5.7094,-5.7097,-5.71,0,-5.6637,-5.6711,-5.6718,-5.6755,-5.6765,-5.6826,-5.6858,-5.6811,-5.6847,-5.6872,-5.6928,-5.6983,-5.7024,-5.7124,-5.7108,-5.7155,-5.7128,-5.7243,-5.7134,-5.7148,-5.713,-5.7127,-5.7134,-5.7265,-5.7269,-5.7272,-5.7275,0,-5.6911,-5.6893,-5.6943,-5.6988,-5.7028,-5.7061,-5.7088,-5.7122,-5.7075,-5.7119,-5.718,-5.7212,-5.7275,-5.733,-5.7369,-5.7373,-5.7317,-5.7309,-5.7334,-5.7351,-5.7361,-5.7358,-5.7005,-5.7301,-5.7299,-5.7297,-5.7295,-5.7294,-5.7115,-5.7178,-5.7192,-5.7249,-5.7265,-5.7291,-5.7347,-5.7337,-5.7388,-5.7436,-5.7404,-5.7477,-5.749,-5.7538,-5.7549,-5.7604,-5.7557,-5.7594,-5.7603,-5.7613,-5.7627,-5.7352,-5.7611,-5.761,-5.7609,-5.7608,-5.7608,0,-5.7386,-5.7392,-5.7445,-5.7485,-5.753,-5.7473,-5.7499,-5.7541,-5.7606,-5.7624,-5.7666,-5.7736,-5.7788,-5.7777,-5.7824,-5.787,-5.7846,-5.7884,-5.7881,-5.7883,-5.7666,-5.764,-5.7904,-5.7904,-5.7903,-5.7903,-5.7903,-5.7903,-5.7533,-5.7636,-5.762,-5.7729,-5.7733,-5.7804,-5.7824,-5.7848,-5.7862,-5.7944,-5.7988,-5.798,-5.7986,-5.8033,-5.8079,-5.8074,-5.8094,-5.8143,-5.8129,-5.7927,-5.7898,-5.787,-5.7845,-5.8148,-5.8148,-5.8341,-5.8343,-5.8344]}]]